Weather History for Muscatine, IA

Change the Weather History Date:

Thursday, May 24, 2012

  Actual Average Record
Temperature  
Mean Temperature 81 °F -  
Max Temperature 93 °F 74 °F 93 °F (2012)
Min Temperature 68 °F 53 °F 39 °F (1979)
Cooling Degree Days 16    
Growing Degree Days 31 (Base 50)    
Moisture  
Dew Point 52 °F    
Average Humidity 41    
Maximum Humidity 78    
Minimum Humidity 20    
Precipitation  
Precipitation 0.00 in - - ()
Sea Level Pressure  
Sea Level Pressure 29.57 in    
Wind  
Wind Speed 14 mph (South)    
Max Wind Speed 31 mph    
Max Gust Speed 40 mph    
Visibility 10 miles    
Events      
Averages and records for this station are not official NWS values.
T = Trace of Precipitation, MM = Missing Value Source: NWS Daily Summary

Daily Weather History Graph

Daily Weather History Graph

Search for Another Location

Airport:

Trip Planner

Search our weather history database for the weather conditions in past years. The results will help you decide how hot, cold, wet, or windy it might be!

Date:

Astronomy

May. 24, 2012 Rise Set
Actual Time 5:37 AM CDT 8:25 PM CDT
Civil Twilight 5:05 AM CDT 8:58 PM CDT
Nautical Twilight 4:24 AM CDT 9:39 PM CDT
Astronomical Twilight 3:37 AM CDT 10:26 PM CDT
Moon 8:38 AM CDT (5/24) 11:25 PM CDT (5/24)
Length of Visible Light 15h 52m
Length of Day
14h 47m
Waxing Crescent, 12% of the Moon is Illuminated
May 24
Waxing Crescent
May 28
First Quarter
Jun 4
Full
Jun 11
Last Quarter
Jun 19
New

Hourly Weather History & Observations

Time (CDT) Temp. Heat Index Dew Point Humidity Pressure Visibility Wind Dir Wind Speed Gust Speed Precip Events Conditions
12:15 AM 71.6 °F - 46.4 °F 41% 29.66 in 10.0 mi SSE 9.2 mph - N/A   Clear
12:35 AM 71.6 °F - 46.4 °F 41% 29.65 in 10.0 mi SSE 10.4 mph 17.3 mph N/A   Clear
12:55 AM 71.6 °F - 46.4 °F 41% 29.64 in 10.0 mi SSE 9.2 mph - N/A   Clear
1:15 AM 71.6 °F - 46.4 °F 41% 29.63 in 10.0 mi SSE 10.4 mph - N/A   Clear
1:35 AM 69.8 °F - 46.4 °F 43% 29.62 in 10.0 mi SSE 10.4 mph 17.3 mph N/A   Clear
1:55 AM 69.8 °F - 48.2 °F 46% 29.61 in 10.0 mi SSE 10.4 mph - N/A   Clear
2:15 AM 69.8 °F - 48.2 °F 46% 29.60 in 10.0 mi SSE 10.4 mph - N/A   Clear
2:35 AM 69.8 °F - 48.2 °F 46% 29.60 in 10.0 mi SSE 10.4 mph 16.1 mph N/A   Clear
2:55 AM 69.8 °F - 48.2 °F 46% 29.61 in 10.0 mi SSE 8.1 mph - N/A   Clear
3:15 AM 69.8 °F - 48.2 °F 46% 29.60 in 10.0 mi SSE 9.2 mph - N/A   Clear
3:35 AM 69.8 °F - 48.2 °F 46% 29.60 in 10.0 mi SSE 9.2 mph - N/A   Clear
3:55 AM 69.8 °F - 46.4 °F 43% 29.60 in 10.0 mi SSE 10.4 mph - N/A   Clear
4:15 AM 69.8 °F - 46.4 °F 43% 29.61 in 10.0 mi South 11.5 mph 18.4 mph N/A   Clear
4:35 AM 69.8 °F - 48.2 °F 46% 29.61 in 10.0 mi South 12.7 mph 17.3 mph N/A   Clear
4:55 AM 69.8 °F - 48.2 °F 46% 29.62 in 10.0 mi SSE 10.4 mph - N/A   Clear
5:15 AM 69.8 °F - 46.4 °F 43% 29.62 in 10.0 mi SSE 10.4 mph - N/A   Clear
5:35 AM 69.8 °F - 46.4 °F 43% 29.61 in 10.0 mi SSE 10.4 mph - N/A   Clear
5:55 AM 69.8 °F - 46.4 °F 43% 29.61 in 10.0 mi SSE 10.4 mph - N/A   Clear
6:15 AM 69.8 °F - 46.4 °F 43% 29.61 in 10.0 mi South 12.7 mph - N/A   Clear
6:35 AM 69.8 °F - 46.4 °F 43% 29.60 in 10.0 mi SSE 11.5 mph - N/A   Clear
6:55 AM 71.6 °F - 46.4 °F 41% 29.60 in 10.0 mi SSE 11.5 mph 18.4 mph N/A   Clear
7:15 AM 71.6 °F - 46.4 °F 41% 29.60 in 10.0 mi SSE 13.8 mph 20.7 mph N/A   Clear
7:35 AM 73.4 °F - 46.4 °F 38% 29.60 in 10.0 mi SSE 13.8 mph 19.6 mph N/A   Clear
7:55 AM 73.4 °F - 48.2 °F 41% 29.60 in 10.0 mi SSE 12.7 mph 18.4 mph N/A   Clear
8:15 AM 75.2 °F - 48.2 °F 38% 29.61 in 10.0 mi South 16.1 mph 23.0 mph N/A   Clear
8:35 AM 77.0 °F - 50.0 °F 39% 29.60 in 10.0 mi SSE 13.8 mph 23.0 mph N/A   Clear
8:55 AM 78.8 °F - 51.8 °F 39% 29.60 in 10.0 mi SSE 16.1 mph 20.7 mph N/A   Clear
9:15 AM 78.8 °F - 51.8 °F 39% 29.59 in 10.0 mi SSE 15.0 mph 18.4 mph N/A   Clear
9:35 AM 80.6 °F 80.3 °F 53.6 °F 39% 29.60 in 10.0 mi South 13.8 mph 18.4 mph N/A   Clear
9:55 AM 82.4 °F 81.7 °F 55.4 °F 39% 29.59 in 10.0 mi South 13.8 mph 21.9 mph N/A   Clear
10:15 AM 82.4 °F 81.7 °F 55.4 °F 39% 29.58 in 10.0 mi South 21.9 mph 28.8 mph N/A   Clear
10:35 AM 84.2 °F 83.0 °F 55.4 °F 37% 29.55 in 10.0 mi SSE 24.2 mph - N/A   Clear
10:55 AM 84.2 °F 83.0 °F 55.4 °F 37% 29.55 in 10.0 mi SSE 18.4 mph 28.8 mph N/A   Clear
11:15 AM 86.0 °F 84.5 °F 55.4 °F 35% 29.54 in 10.0 mi South 25.3 mph 32.2 mph N/A   Clear
11:35 AM 87.8 °F 85.7 °F 53.6 °F 31% 29.53 in 10.0 mi South 21.9 mph 35.7 mph N/A   Clear
11:55 AM 87.8 °F 85.7 °F 53.6 °F 31% 29.52 in 10.0 mi SSE 24.2 mph 32.2 mph N/A   Clear
12:15 PM 87.8 °F - 51.8 °F 29% 29.51 in 10.0 mi SSE 23.0 mph 32.2 mph N/A   Clear
12:35 PM 87.8 °F - 51.8 °F 29% 29.51 in 10.0 mi SSE 18.4 mph 34.5 mph N/A   Clear
12:55 PM 89.6 °F - 51.8 °F 27% 29.50 in 10.0 mi South 29.9 mph 36.8 mph N/A   Clear
1:15 PM 89.6 °F - 50.0 °F 26% 29.49 in 10.0 mi SSE 29.9 mph 36.8 mph N/A   Clear
1:35 PM 91.4 °F - 51.8 °F 26% 29.49 in 10.0 mi SSE 23.0 mph 32.2 mph N/A   Clear
1:55 PM 91.4 °F - 51.8 °F 26% 29.48 in 10.0 mi South 26.5 mph 33.4 mph N/A   Clear
2:15 PM 93.2 °F - 50.0 °F 23% 29.48 in 10.0 mi South 26.5 mph 33.4 mph N/A   Clear
2:35 PM 91.4 °F - 48.2 °F 23% 29.48 in 7.0 mi South 31.1 mph 36.8 mph N/A   Clear
2:55 PM 91.4 °F - 48.2 °F 23% 29.47 in 7.0 mi South 27.6 mph 40.3 mph N/A   Clear
3:15 PM 91.4 °F - 50.0 °F 24% 29.48 in 7.0 mi South 27.6 mph 38.0 mph N/A   Clear
3:35 PM 93.2 °F - 50.0 °F 23% 29.48 in 10.0 mi South 29.9 mph 36.8 mph N/A   Clear
3:55 PM 93.2 °F - 48.2 °F 21% 29.47 in 10.0 mi South 28.8 mph 40.3 mph N/A   Clear
4:15 PM 93.2 °F - 48.2 °F 21% 29.47 in 10.0 mi South 23.0 mph 34.5 mph N/A   Clear
4:35 PM 93.2 °F - 46.4 °F 20% 29.46 in 10.0 mi South 24.2 mph 32.2 mph N/A   Clear
4:55 PM 91.4 °F - 44.6 °F 20% 29.47 in 10.0 mi South 26.5 mph 33.4 mph N/A   Scattered Clouds
5:15 PM 89.6 °F - 46.4 °F 22% 29.48 in 10.0 mi SSW 17.3 mph 28.8 mph N/A   Mostly Cloudy
5:35 PM 89.6 °F - 51.8 °F 27% 29.49 in 10.0 mi SSW 19.6 mph 31.1 mph N/A   Scattered Clouds
5:55 PM 87.8 °F 86.5 °F 57.2 °F 35% 29.49 in 10.0 mi SSW 15.0 mph 24.2 mph N/A   Scattered Clouds
6:15 PM 87.8 °F 86.5 °F 57.2 °F 35% 29.50 in 10.0 mi SW 19.6 mph 26.5 mph N/A   Scattered Clouds
6:35 PM 87.8 °F 86.5 °F 57.2 °F 35% 29.50 in 10.0 mi SSW 15.0 mph 26.5 mph N/A   Scattered Clouds
6:55 PM 86.0 °F 85.4 °F 59.0 °F 40% 29.50 in 10.0 mi SSW 17.3 mph 24.2 mph N/A   Scattered Clouds
7:15 PM 86.0 °F 86.1 °F 60.8 °F 43% 29.51 in 10.0 mi SSW 16.1 mph 23.0 mph N/A   Mostly Cloudy
7:35 PM 86.0 °F 86.1 °F 60.8 °F 43% 29.53 in 10.0 mi SW 15.0 mph 24.2 mph N/A   Scattered Clouds
7:55 PM 84.2 °F 84.4 °F 60.8 °F 45% 29.55 in 10.0 mi WSW 16.1 mph - N/A   Scattered Clouds
8:15 PM 84.2 °F 84.4 °F 60.8 °F 45% 29.56 in 10.0 mi SW 13.8 mph 23.0 mph N/A   Clear
8:35 PM 84.2 °F 85.0 °F 62.6 °F 48% 29.57 in 10.0 mi SW 11.5 mph 23.0 mph N/A   Scattered Clouds
8:55 PM 84.2 °F 85.0 °F 62.6 °F 48% 29.59 in 10.0 mi WSW 13.8 mph 20.7 mph N/A   Scattered Clouds
9:15 PM 75.2 °F - 62.6 °F 65% 29.61 in 10.0 mi NW 18.4 mph 25.3 mph N/A   Scattered Clouds
9:35 PM 73.4 °F - 64.4 °F 73% 29.64 in 10.0 mi NW 9.2 mph - N/A   Scattered Clouds
9:55 PM 73.4 °F - 64.4 °F 73% 29.67 in 10.0 mi WNW 9.2 mph - N/A   Clear
10:15 PM 71.6 °F - 62.6 °F 73% 29.69 in 10.0 mi WNW 11.5 mph - N/A   Scattered Clouds
10:35 PM 71.6 °F - 62.6 °F 73% 29.71 in 10.0 mi WNW 5.8 mph - N/A   Mostly Cloudy
10:55 PM 69.8 °F - 62.6 °F 78% 29.73 in 10.0 mi NW 6.9 mph - N/A   Scattered Clouds
11:15 PM 69.8 °F - 62.6 °F 78% 29.73 in 10.0 mi WNW 9.2 mph - N/A   Mostly Cloudy
11:35 PM 69.8 °F - 60.8 °F 73% 29.75 in 10.0 mi NW 13.8 mph - N/A   Scattered Clouds
11:55 PM 68.0 °F - 59.0 °F 73% 29.75 in 10.0 mi NW 15.0 mph 19.6 mph N/A   Clear